Location: Penton Mewsey
(51.2167°N, 1.5167°W)
Time: 10:49:33
(UTC+00:00)

Cosmos 2369 Rocket - Pass Details

Date: 30 March 2020
Orbit: 829 x 852 km, 71.0° (Epoch: 24 May)

Event Time Altitude Azimuth Distance (km) Brightness Sun altitude
Rises 19:30:47 0° 331° (NNW) 3,431 6.2 -9.1°
Reaches altitude 10° 19:33:21 10° 337° (NNW) 2,490 5.3 -9.5°
Maximum altitude 19:38:53 48° 52° (NE) 1,097 2.6 -10.3°
Enters shadow 19:43:39 14° 124° (ESE) 2,216 3.8 -11.0°
